Regional Weather Roundup
Issued by NWS Newport/Morehead, NC

Current Version | Previous Version | Graphics & Text | Print | Product List | Glossary Off
Versions: 1 2 3 4 5 6 7 8 9 10 11 12 13 14 15 16 17 18 19 20 21 22 23 24 25 26 27 28 29 30 31 32 33 34 35 36 37 38 39 40 41 42 43 44 45 46 47 48

000
ASUS42 KMHX 222214
RWRMHX
WEATHER ROUNDUP FOR EASTERN NORTH CAROLINA
NATIONAL WEATHER SERVICE NEWPORT/MOREHEAD CITY NC
600 PM EDT SUN APR 22 2018

NOTE: "FAIR" INDICATES FEW OR NO CLOUDS BELOW 12,000 FEET
WITH NO SIGNIFICANT WEATHER AND/OR OBSTRUCTIONS TO VISIBILITY

NCZ015>017-031-032-045>047-102-103-222300-
NORTH COAST

CITY           SKY/WX    TMP DP  RH WIND       PRES   REMARKS
EDENTON        FAIR      60  42  51 E9        30.36S
ELIZABETH CITY FAIR      59  37  44 E9        30.37S
KITTY HAWK     FAIR      53  40  60 E6        30.37F
MANTEO         FAIR      55  40  58 E13       30.38F

$$

NCZ045>047-081-094-103-104-222300-
CENTRAL COAST

CITY           SKY/WX    TMP DP  RH WIND       PRES   REMARKS
FRISCO         FAIR      58  48  69 NE9G18    30.36S

$$

NCZ095-097-098-100-101-222300-
SOUTHERN COAST

CITY           SKY/WX    TMP DP  RH WIND       PRES   REMARKS
BEAUFORT       FAIR      61  37  41 E12G18    30.33S
CEDAR ISLAND   NOT AVBL
JACKSONVILLE   FAIR      64  35  34 SE10      30.32R
PINEY ISLAND   NOT AVBL
WILMINGTON     FAIR      63  44  50 E8        30.31S


$$

NCZ011>013-027>030-043-044-078>080-089-090>093-098-222300-
COASTAL PLAIN

CITY           SKY/WX    TMP DP  RH WIND       PRES   REMARKS
AHOSKIE        FAIR      64  39  39 SE9G16    30.32S
CLINTON        FAIR      68  47  47 SE6       30.30R
ELIZABETHTOWN  CLOUDY    67  48  51 MISG      30.30R
GOLDSBORO      FAIR      69  42  37 E9        30.27S
GREENVILLE     FAIR      68  36  30 SE8       30.32S
HAVELOCK       NOT AVBL
KENANSVILLE    FAIR      66  39  37 SE7       30.30R
KINSTON        FAIR      68  36  30 E7        30.31R
NEW BERN       FAIR      63  31  30 E6        30.34R
RICHLANDS      FAIR      65  34  31 SE9       30.32R
ROCKY MOUNT    FAIR      68  37  32 VRB3      30.29F
WASHINGTON     FAIR      64  35  34 SE9       30.33S
WHITEVILLE     CLOUDY    67  49  53 SE6       30.29S

$$

AMZ130-135-150-152-154-156-158-170-250-252-270-ANZ085-086-088-633-658-670-222300-
MARINE OBSERVATIONS

STATION/POSITION TIME  TEMP    WIND        PRES    WAVE   SWELL
                       AIR SEA DIR/SP/G            HT/PER HT/PER
                 (UTC) (F)     (DEG/KT/KT) (MB)    (FT/S) (FT/S)
CHESAPEAKE LIGHT NOT AVBL
64 E VA BEACH    2150   52 52   70/  6/  8 1029.5    1/15   2/15
DUCK             2136   53 54   80/ 11/ 12 1028.2
2 E DUCK         2200      53                N/A     2/13   2/13
OREGON INLET     2136   53 58   40/ 10/ 14 1028.5
13E OREGON INLT  2148      51                N/A     2/14   2/14
HATTERAS CG      2136   57 62   50/ 10/ 16 1027.8
DIAMOND BUOY     2200   63 74   40/ 14/ 16 1027.9
CAPE LOOKOUT     2200           60/ 15/ 17 1027.1
BEAUFORT LAB     2136   62 63   80/  9/ 13 1027.1
30 SE NEW RVR IN 2108   62 65   80/ 14/ 17 1027.0
30 SE NEW RVR IN 2200      65                N/A     4/ 5
27 SE WRIGHTSVLE 2108   64 65   90/ 16/ 23 1026.3
5 SE WRIGHTSVLE  2108   62 61  100/ 12/ 16 1025.9
225 S CAPE HAT   2200   67 72   80/ 12/ 14 1024.7
41 SE CHARLESTON 2200   69 67  100/ 14/ 17 1023.5

$$




USA.gov is the U.S. government's official web portal to all federal, state and local government web resources and services.